EN

Hourly Weather Abaytikau

Today, 29 November, Sunday

Time Temperature Precipitation Wind Pressure Humidity
00:00 -7°C° 0 mm 3 mps 576 mmHg 24%
01:00 -7°C° 0 mm 3 mps 576 mmHg 26%
02:00 -7°C° 0 mm 3 mps 576 mmHg 28%
03:00 -6°C° 0 mm 2 mps 576 mmHg 29%
04:00 -6°C° 0 mm 2 mps 576 mmHg 31%
05:00 -6°C° 0 mm 2 mps 576 mmHg 33%
06:00 -6°C° 0 mm 2 mps 576 mmHg 35%
07:00 -5°C° 0 mm 2 mps 576 mmHg 40%
08:00 -2°C° 0 mm 1 mps 577 mmHg 45%
09:00 0°C° 0 mm 1 mps 578 mmHg 54%
10:00 0°C° 0 mm 1 mps 578 mmHg 59%
11:00 +1°C° 0 mm 1 mps 578 mmHg 64%
12:00 +1°C° 0 mm 0 mps 578 mmHg 69%
13:00 +1°C° 0 mm 0 mps 577 mmHg 70%
14:00 0°C° 0 mm 0 mps 577 mmHg 71%
15:00 0°C° 0 mm 0 mps 577 mmHg 72%
16:00 -2°C° 0 mm 0 mps 576 mmHg 70%
17:00 -2°C° 0 mm 1 mps 576 mmHg 67%
18:00 -3°C° 0 mm 1 mps 575 mmHg 64%
19:00 -3°C° 0 mm 1 mps 575 mmHg 61%
20:00 -4°C° 0 mm 1 mps 575 mmHg 58%
21:00 -4°C° 0 mm 1 mps 575 mmHg 55%
22:00 -4°C° 0 mm 1 mps 575 mmHg 53%
23:00 -4°C° 0 mm 1 mps 575 mmHg 51%

Tomorrow, 30 November, Monday

Time Temperature Precipitation Wind Pressure Humidity
00:00 -4°C° 0 mm 1 mps 575 mmHg 48%
01:00 -4°C° 0 mm 1 mps 574 mmHg 47%
02:00 -7°C° 0 mm 2 mps 574 mmHg 46%
03:00 -7°C° 0 mm 2 mps 574 mmHg 44%
04:00 -7°C° 0 mm 2 mps 574 mmHg 45%
05:00 -7°C° 0 mm 2 mps 574 mmHg 47%
06:00 -7°C° 0 mm 2 mps 574 mmHg 48%
07:00 -7°C° 0 mm 2 mps 574 mmHg 52%
08:00 -4°C° 0 mm 1 mps 574 mmHg 57%
09:00 -3°C° 0 mm 1 mps 575 mmHg 61%
10:00 -2°C° 0 mm 1 mps 575 mmHg 63%
11:00 -2°C° 0 mm 1 mps 575 mmHg 64%
12:00 -1°C° 0 mm 1 mps 575 mmHg 66%
13:00 -1°C° 0 mm 1 mps 575 mmHg 72%
14:00 -2°C° 0 mm 1 mps 575 mmHg 78%
15:00 -2°C° 0 mm 1 mps 574 mmHg 85%
16:00 -4°C° 0 mm 1 mps 573 mmHg 83%
17:00 -6°C° 0 mm 1 mps 573 mmHg 82%
18:00 -8°C° 0 mm 1 mps 572 mmHg 80%
19:00 -8°C° 0 mm 1 mps 572 mmHg 81%
20:00 -8°C° 0 mm 1 mps 572 mmHg 82%
21:00 -9°C° 0 mm 2 mps 572 mmHg 82%
22:00 -9°C° 0 mm 2 mps 572 mmHg 84%
23:00 -10°C° 0 mm 2 mps 572 mmHg 85%

Day after tomorrow, 1 December, Tuesday

Time Temperature Precipitation Wind Pressure Humidity
00:00 -12°C° 0 mm 3 mps 571 mmHg 87%
01:00 -12°C° 0 mm 3 mps 571 mmHg 88%
02:00 -12°C° 0 mm 3 mps 571 mmHg 89%
03:00 -10°C° 0 mm 3 mps 571 mmHg 91%
04:00 -10°C° 0 mm 3 mps 571 mmHg 91%
05:00 -10°C° 0 mm 3 mps 571 mmHg 91%
06:00 -10°C° 0 mm 3 mps 571 mmHg 90%
07:00 -10°C° 0 mm 3 mps 572 mmHg 90%
08:00 -8°C° 0 mm 2 mps 572 mmHg 89%
09:00 -7°C° 0 mm 2 mps 573 mmHg 88%
10:00 -6°C° 0 mm 2 mps 573 mmHg 87%
11:00 -5°C° 0 mm 2 mps 573 mmHg 87%
12:00 -4°C° 0 mm 2 mps 574 mmHg 86%
13:00 -5°C° 0 mm 2 mps 573 mmHg 88%
14:00 -5°C° 0 mm 2 mps 573 mmHg 89%
15:00 -3°C° 0 mm 1 mps 573 mmHg 91%
16:00 -6°C° 0 mm 2 mps 573 mmHg 89%
17:00 -8°C° 0 mm 2 mps 572 mmHg 86%
18:00 -9°C° 0 mm 2 mps 572 mmHg 84%
19:00 -9°C° 0 mm 2 mps 572 mmHg 81%
20:00 -9°C° 0 mm 2 mps 573 mmHg 78%
21:00 -9°C° 0 mm 2 mps 573 mmHg 75%
22:00 -9°C° 0 mm 2 mps 573 mmHg 75%
23:00 -9°C° 0 mm 2 mps 573 mmHg 75%

2 December, Wednesday

Time Temperature Precipitation Wind Pressure Humidity
00:00 -10°C° 0 mm 3 mps 573 mmHg 74%
01:00 -10°C° 0 mm 3 mps 573 mmHg 73%
02:00 -9°C° 0 mm 2 mps 573 mmHg 72%
03:00 -9°C° 0 mm 2 mps 573 mmHg 70%
04:00 -9°C° 0 mm 2 mps 573 mmHg 70%
05:00 -9°C° 0 mm 2 mps 573 mmHg 70%
06:00 -9°C° 0 mm 2 mps 573 mmHg 70%
07:00 -8°C° 0 mm 2 mps 574 mmHg 69%
08:00 -6°C° 0 mm 1 mps 575 mmHg 69%
09:00 -3°C° 0 mm 1 mps 575 mmHg 69%
10:00 -2°C° 0 mm 1 mps 576 mmHg 70%
11:00 -1°C° 0 mm 1 mps 576 mmHg 72%
12:00 0°C° 0 mm 1 mps 576 mmHg 73%
13:00 -1°C° 0 mm 1 mps 576 mmHg 77%
14:00 -1°C° 0 mm 1 mps 576 mmHg 81%
15:00 -1°C° 0 mm 1 mps 575 mmHg 85%
16:00 -3°C° 0 mm 1 mps 575 mmHg 83%
17:00 -4°C° 0 mm 1 mps 574 mmHg 80%
18:00 -7°C° 0 mm 1 mps 574 mmHg 77%
19:00 -7°C° 0 mm 1 mps 574 mmHg 77%
20:00 -8°C° 0 mm 2 mps 574 mmHg 77%
21:00 -8°C° 0 mm 2 mps 574 mmHg 77%
22:00 -8°C° 0 mm 2 mps 575 mmHg 78%
23:00 -8°C° 0 mm 2 mps 575 mmHg 79%

3 December, Thursday

Time Temperature Precipitation Wind Pressure Humidity
00:00 -8°C° 0 mm 2 mps 575 mmHg 81%
01:00 -8°C° 0 mm 2 mps 575 mmHg 82%
02:00 -8°C° 0 mm 2 mps 575 mmHg 83%
03:00 -8°C° 0 mm 2 mps 575 mmHg 83%
04:00 -8°C° 0 mm 2 mps 575 mmHg 83%
05:00 -8°C° 0 mm 2 mps 575 mmHg 83%
06:00 -8°C° 0 mm 2 mps 575 mmHg 83%
07:00 -6°C° 0 mm 1 mps 576 mmHg 82%
08:00 -4°C° 0 mm 1 mps 576 mmHg 82%
09:00 -3°C° 0 mm 1 mps 577 mmHg 81%
10:00 -2°C° 0 mm 1 mps 577 mmHg 83%
11:00 -1°C° 0 mm 1 mps 578 mmHg 84%
12:00 0°C° 0 mm 1 mps 578 mmHg 86%
13:00 -1°C° 0 mm 1 mps 577 mmHg 89%
14:00 -1°C° 0 mm 1 mps 577 mmHg 91%
15:00 -1°C° 0 mm 1 mps 577 mmHg 94%
16:00 -3°C° 0 mm 1 mps 576 mmHg 92%
17:00 -4°C° 0 mm 1 mps 576 mmHg 90%
18:00 -7°C° 0 mm 2 mps 575 mmHg 88%
19:00 -7°C° 0 mm 2 mps 575 mmHg 87%
20:00 -8°C° 0 mm 2 mps 575 mmHg 86%
21:00 -8°C° 0 mm 2 mps 575 mmHg 84%
22:00 -8°C° 0 mm 2 mps 575 mmHg 84%
23:00 -8°C° 0 mm 2 mps 575 mmHg 85%

4 December, Friday

Time Temperature Precipitation Wind Pressure Humidity
00:00 -8°C° 0 mm 2 mps 575 mmHg 85%
01:00 -8°C° 0 mm 2 mps 575 mmHg 85%
02:00 -8°C° 0 mm 2 mps 575 mmHg 85%
03:00 -8°C° 0 mm 2 mps 575 mmHg 85%
04:00 -8°C° 0 mm 2 mps 575 mmHg 83%
05:00 -8°C° 0 mm 2 mps 575 mmHg 81%
06:00 -8°C° 0 mm 2 mps 575 mmHg 79%
07:00 -7°C° 0 mm 2 mps 575 mmHg 78%
08:00 -4°C° 0 mm 1 mps 576 mmHg 77%
09:00 -3°C° 0 mm 1 mps 577 mmHg 76%
10:00 -3°C° 0 mm 1 mps 577 mmHg 78%
11:00 -2°C° 0 mm 1 mps 577 mmHg 80%
12:00 -1°C° 0 mm 1 mps 577 mmHg 82%
13:00 -1°C° 0 mm 1 mps 577 mmHg 85%
14:00 -2°C° 0 mm 1 mps 576 mmHg 88%
15:00 -2°C° 0 mm 1 mps 576 mmHg 91%
16:00 -4°C° 0 mm 1 mps 575 mmHg 88%
17:00 -6°C° 0 mm 1 mps 574 mmHg 85%
18:00 -9°C° 0 mm 2 mps 574 mmHg 82%
19:00 -8°C° 0 mm 1 mps 574 mmHg 78%
20:00 -8°C° 0 mm 1 mps 574 mmHg 74%
21:00 -8°C° 0 mm 1 mps 574 mmHg 70%
22:00 -8°C° 0 mm 1 mps 574 mmHg 69%
23:00 -8°C° 0 mm 1 mps 573 mmHg 67%
Show more